Location: Fluertsh�userhof
(48.7537°N, 10.3850°E)
Time: 05:38:23
(UTC+00:00)

ATLAS 3B R/B - Pass Details

Date: 18 September 2020
Orbit: 1016 x 1179 km, 63.8° (Epoch: 04 October)

Event Time Altitude Azimuth Distance (km) Brightness Sun altitude
Rises 19:31:03 0° 316° (NW) 3,807 6.9 -20.9°
Reaches altitude 10° 19:33:50 10° 324° (NW) 2,871 5.9 -21.3°
Maximum altitude 19:40:13 41° 34° (NNE) 1,510 3.4 -22.2°
Enters shadow 19:42:49 31° 78° (ENE) 1,824 3.5 -22.5°
